Simultaneous Nadir Overpasses (SNOs) Predictions

Prediction of SNOs between AQUA and METOP-B Satellite Orbit:

Table of predicted SNOs for the next 14.0 days since TLE Epoch: 5/8/2021
Index Date (AQUA) Time (AQUA) Lat,Lon (AQUA) SZA (AQUA ) Date (METOP-B) Time (METOP-B) Lat,Lon (METOP-B) SZA (METOP-B ) Distance(km) Time Diff (sec)
1 05/08/2021 22:30:46 -73.34, 17.52 124.06 05/08/2021 22:29:37 -73.27, 15.63 124.06 60.95 69
2 05/08/2021 23:20:22 73.79,-175.80 56.41 05/08/2021 23:20:06 73.82,-175.78 56.44 3.44 16
3 05/09/2021 00:09:49 -73.86, -8.30 123.53 05/09/2021 00:10:47 -73.85, -8.37 123.54 2.20 58
4 05/11/2021 18:05:08 -73.68, 83.24 124.43 05/11/2021 18:03:55 -73.63, 82.83 124.47 14.07 73
5 05/11/2021 18:54:38 73.82,-109.44 55.71 05/11/2021 18:54:31 73.82,-109.38 55.71 1.87 7
6 05/11/2021 19:44:05 -73.88, 58.07 124.24 05/11/2021 19:45:12 -73.86, 58.04 124.27 3.18 67
7 05/14/2021 13:39:25 -73.76, 149.49 125.03 05/14/2021 13:38:17 -73.78, 149.59 125.02 3.33 68
8 05/14/2021 14:28:53 73.81, -42.97 55.01 05/14/2021 14:28:56 73.81, -42.99 55.01 0.51 3
9 05/14/2021 15:18:22 -73.97, 124.32 124.84 05/14/2021 15:19:34 -74.01, 124.80 124.82 15.46 72
10 05/17/2021 09:13:39 -73.75,-144.04 125.70 05/17/2021 09:12:41 -73.78,-144.01 125.67 2.92 58
11 05/17/2021 10:03:07 73.80, 23.48 54.35 05/17/2021 10:03:20 73.81, 23.40 54.36 2.45 13
12 05/17/2021 10:52:43 -74.31,-170.05 125.11 05/17/2021 10:53:51 -74.35,-167.93 125.14 63.62 68
13 05/20/2021 04:47:54 -73.74, -77.59 126.31 05/20/2021 04:47:06 -73.77, -77.61 126.27 3.23 48
14 05/20/2021 05:37:23 73.86, 89.80 53.80 05/20/2021 05:37:44 73.85, 89.90 53.79 3.16 21



Historial Predications of SNOs between AQUA and METOP-B
